sat.trackr.live / text

‹ back to catalog

GEESAT-2 05

NORAD 58909 · 2024-023E

PAYLOAD ACTIVE UNKNOWN

§ Identity

Operator
Country
PRC
Launch date
2024-02-02
Launch site
XICLF
Launch vehicle
Mass (kg)
RCS (m²)

External: N2YO · Heavens-Above · Gunter

§ Orbital elements

Epoch: 2026-09-22T16:52:28.596000Z

Period
97.07 min
Inclination
50.0044°
Eccentricity
0.0010678
Mean motion
14.83476591 rev/d
Perigee alt
610.9 km
Apogee alt
625.8 km
Semi-major
6,996.5 km
B*
1.4326e-4
RAAN
262.6943°
Arg perigee
75.7717°
Mean anomaly
284.4407°
Rev number
14,339

§ Raw data

GEESAT-2 051 58909U 24023E   26265.70310875  .00000963  00000+0  14326-3 0  99902 58909  50.0044 262.6943 0010678  75.7717 284.4407 14.83476591143391

JSON: /api/v1/satellites/58909 · /tle

For live sub-satellite position, see the globe view (requires WebGL).

§ Visibility from observer

Set your observer location to see the next 7 days of passes ≥ 10°. The values pass through the URL so the page stays shareable.

No JS? Fill the form by hand. The geolocation button needs JavaScript.